Wheaton NDB, MN

4:18 AM CDT on August 24, 2017 (GMT -0500)
Wheaton Municipal

Weather History for KETH - March, 2014

Change the Weather History Date:

Monday, March 31, 2014

  Actual Average Record
Temperature  
Mean Temperature 32 °F -  
Max Temperature 48 °F 49 °F 84 °F (1963)
Min Temperature 17 °F 26 °F -4 °F (1969)
Degree Days  
Heating Degree Days 32    
Moisture  
Dew Point 31 °F    
Average Humidity 87    
Maximum Humidity 100    
Minimum Humidity 71    
Precipitation  
Precipitation 0.00 in - - ()
Sea Level Pressure  
Sea Level Pressure 29.59 in    
Wind  
Wind Speed 11 mph (North)    
Max Wind Speed 23 mph    
Max Gust Speed 34 mph    
Visibility 7 miles    
Events Snow , Thunderstorm    
Averages and records for this station are not official NWS values.
T = Trace of Precipitation, MM = Missing Value Source: NWS Daily Summary

Daily Weather History Graph

Daily Weather History Graph

Search for Another Location

Airport or City:

Trip Planner

Search our weather history database for the weather conditions in past years. The results will help you decide how hot, cold, wet, or windy it might be!

Date:

Astronomy

Mar. 31, 2014 Rise Set
Actual Time 7:08 AM CDT 7:53 PM CDT
Civil Twilight 6:38 AM CDT 8:23 PM CDT
Nautical Twilight 6:02 AM CDT 8:59 PM CDT
Astronomical Twilight 5:25 AM CDT 9:36 PM CDT
Moon 7:29 AM CDT (3/31) 9:18 PM CDT (3/31)
Length of Visible Light 13h 45m
Length of Day
12h 45m
New Moon, 1% of the Moon is Illuminated
Mar 31
New Moon
Apr 7
First Quarter
Apr 15
Full
Apr 22
Last Quarter
Apr 29
New

Hourly Weather History & Observations

Time (CDT) Temp. Windchill Dew Point Humidity Pressure Visibility Wind Dir Wind Speed Gust Speed Precip Events Conditions
12:14 AM 39.2 °F 35.0 °F 35.6 °F 87% 29.75 in 10.0 mi North 5.8 mph - N/A   Clear
12:34 AM 39.2 °F 34.2 °F 35.6 °F 87% 29.74 in 10.0 mi North 6.9 mph - N/A   Clear
12:54 AM 37.4 °F 32.1 °F 35.6 °F 93% 29.72 in 10.0 mi North 6.9 mph - N/A   Clear
1:14 AM 37.4 °F 32.1 °F 33.8 °F 87% 29.71 in 10.0 mi North 6.9 mph - N/A   Clear
1:34 AM 37.4 °F 31.4 °F 33.8 °F 87% 29.71 in 10.0 mi North 8.1 mph - N/A   Clear
1:54 AM 37.4 °F 32.1 °F 33.8 °F 87% 29.71 in 10.0 mi North 6.9 mph - N/A   Clear
2:14 AM 37.4 °F 32.8 °F 33.8 °F 87% 29.70 in 10.0 mi North 5.8 mph - N/A   Clear
2:34 AM 37.4 °F 30.8 °F 33.8 °F 87% 29.69 in 10.0 mi NNW 9.2 mph - N/A   Clear
2:54 AM 39.2 °F 33.0 °F 35.6 °F 87% 29.69 in 10.0 mi NNW 9.2 mph - N/A   Clear
3:14 AM 37.4 °F 30.8 °F 33.8 °F 87% 29.68 in 10.0 mi North 9.2 mph - N/A   Clear
3:34 AM 37.4 °F 29.8 °F 33.8 °F 87% 29.66 in 10.0 mi North 11.5 mph - N/A   Clear
3:54 AM 37.4 °F 29.8 °F 35.6 °F 93% 29.64 in 10.0 mi North 11.5 mph - N/A   Clear
4:14 AM 37.4 °F 30.8 °F 35.6 °F 93% 29.65 in 10.0 mi North 9.2 mph - N/A   Clear
4:34 AM 37.4 °F 30.8 °F 33.8 °F 87% 29.63 in 10.0 mi North 9.2 mph - N/A   Clear
4:54 AM 37.4 °F 31.4 °F 33.8 °F 87% 29.63 in 10.0 mi NNW 8.1 mph - N/A   Clear
5:14 AM 37.4 °F 30.3 °F 35.6 °F 93% 29.61 in 10.0 mi North 10.4 mph - N/A   Clear
5:34 AM 37.4 °F 30.8 °F 35.6 °F 93% 29.62 in 10.0 mi North 9.2 mph - N/A   Clear
5:54 AM 37.4 °F 31.4 °F 35.6 °F 93% 29.61 in 10.0 mi North 8.1 mph - N/A   Clear
6:14 AM 37.4 °F 32.1 °F 33.8 °F 87% 29.60 in 10.0 mi North 6.9 mph - N/A   Clear
6:34 AM 37.4 °F 30.3 °F 33.8 °F 87% 29.59 in 10.0 mi North 10.4 mph - N/A   Clear
6:54 AM 37.4 °F 29.3 °F 35.6 °F 93% 29.58 in 7.0 mi North 12.7 mph - N/A   Clear
7:14 AM 37.4 °F 31.4 °F 33.8 °F 87% 29.59 in 7.0 mi North 8.1 mph - N/A   Clear
7:34 AM 37.4 °F 30.3 °F 35.6 °F 93% 29.58 in 7.0 mi North 10.4 mph - N/A   Clear
7:54 AM 39.2 °F 33.0 °F 35.6 °F 87% 29.58 in 7.0 mi North 9.2 mph - N/A   Clear
8:14 AM 39.2 °F 33.6 °F 35.6 °F 87% 29.58 in 7.0 mi North 8.1 mph - N/A   Clear
8:34 AM 41.0 °F 33.9 °F 35.6 °F 81% 29.58 in 10.0 mi North 12.7 mph 18.4 mph N/A   Clear
8:54 AM 41.0 °F 33.9 °F 35.6 °F 81% 29.56 in 10.0 mi North 12.7 mph 19.6 mph N/A   Clear
9:14 AM 41.0 °F 35.2 °F 35.6 °F 81% 29.55 in 10.0 mi NE 9.2 mph - N/A   Clear
9:34 AM 42.8 °F 37.0 °F 35.6 °F 76% 29.56 in 10.0 mi NNE 10.4 mph - N/A   Clear
9:54 AM 42.8 °F 37.0 °F 37.4 °F 81% 29.55 in 10.0 mi NNE 10.4 mph - N/A   Clear
10:14 AM 46.4 °F 41.5 °F 39.2 °F 76% 29.56 in 10.0 mi NNE 10.4 mph - N/A   Clear
10:34 AM 46.4 °F 41.9 °F 37.4 °F 71% 29.56 in 10.0 mi NNE 9.2 mph - N/A   Scattered Clouds
10:54 AM 46.4 °F 41.5 °F 37.4 °F 71% 29.55 in 10.0 mi NNE 10.4 mph - N/A   Scattered Clouds
11:14 AM 46.4 °F 41.5 °F 37.4 °F 71% 29.55 in 10.0 mi NNE 10.4 mph - N/A   Mostly Cloudy
11:34 AM 48.2 °F - 39.2 °F 71% 29.54 in 10.0 mi NNE 9.2 mph - N/A   Scattered Clouds
11:54 AM 48.2 °F - 39.2 °F 71% 29.53 in 10.0 mi North 13.8 mph - N/A   Mostly Cloudy
12:14 PM 48.2 °F - 39.2 °F 71% 29.52 in 10.0 mi NNE 12.7 mph 17.3 mph N/A   Overcast
12:34 PM 48.2 °F - 39.2 °F 71% 29.51 in 10.0 mi North 11.5 mph - N/A   Overcast
12:54 PM 46.4 °F 40.7 °F 37.4 °F 71% 29.51 in 10.0 mi North 12.7 mph 18.4 mph N/A   Overcast
1:14 PM 46.4 °F 41.1 °F 37.4 °F 71% 29.51 in 10.0 mi North 11.5 mph - N/A Thunderstorm Overcast
1:34 PM 46.4 °F 40.4 °F 37.4 °F 71% 29.50 in 10.0 mi North 13.8 mph - N/A   Overcast
1:54 PM 44.6 °F 38.1 °F 37.4 °F 76% 29.50 in 10.0 mi North 13.8 mph - N/A   Overcast
2:14 PM 44.6 °F 38.1 °F 37.4 °F 76% 29.49 in 10.0 mi North 13.8 mph 18.4 mph N/A   Overcast
2:34 PM 42.8 °F 35.1 °F 35.6 °F 76% 29.49 in 10.0 mi NNW 16.1 mph 20.7 mph N/A   Overcast
2:56 PM 37.4 °F 26.9 °F 35.6 °F 93% 29.48 in 10.0 mi NNW 20.7 mph 28.8 mph N/A   Overcast
3:14 PM 35.6 °F 24.0 °F 33.8 °F 93% 29.47 in 10.0 mi NNW 23.0 mph 34.5 mph N/A   Overcast
3:34 PM 33.8 °F 21.6 °F 32.0 °F 93% 29.48 in 3.0 mi NNW 23.0 mph 32.2 mph N/A   Overcast
3:54 PM 33.8 °F 21.9 °F 32.0 °F 93% 29.49 in 2.0 mi NNW 21.9 mph 28.8 mph N/A Snow Light Snow
4:14 PM 33.8 °F 22.2 °F 30.2 °F 87% 29.48 in 1.8 mi NNW 20.7 mph 32.2 mph N/A Snow Light Snow
4:34 PM 32.0 °F 19.8 °F 30.2 °F 93% 29.47 in 2.0 mi NNW 20.7 mph 29.9 mph N/A Snow , Thunderstorm Light Thunderstorms and Snow
4:54 PM 30.2 °F 17.4 °F 28.4 °F 93% 29.47 in 3.0 mi NNW 20.7 mph 26.5 mph N/A   Overcast
5:14 PM 28.4 °F 15.4 °F 28.4 °F 100% 29.48 in 4.0 mi NNW 19.6 mph 26.5 mph N/A Thunderstorm Thunderstorm
5:34 PM 28.4 °F 16.6 °F 28.4 °F 100% 29.49 in 4.0 mi NNW 16.1 mph 26.5 mph N/A   Overcast
5:54 PM 26.6 °F 13.8 °F 26.6 °F 100% 29.49 in 7.0 mi NNW 17.3 mph 21.9 mph N/A Thunderstorm Thunderstorm
6:14 PM 26.6 °F 13.4 °F 24.8 °F 93% 29.50 in 4.0 mi NNW 18.4 mph 26.5 mph N/A   Overcast
6:34 PM 24.8 °F 11.5 °F 23.0 °F 93% 29.52 in 1.5 mi NNW 17.3 mph 25.3 mph N/A Snow , Thunderstorm Light Thunderstorms and Snow
6:55 PM 24.8 °F 11.5 °F 23.0 °F 93% 29.53 in - NNW 17.3 mph 25.3 mph N/A   Unknown
7:12 PM 23.0 °F 8.3 °F 21.2 °F 93% 29.53 in 2.5 mi NNW 19.6 mph 27.6 mph N/A Snow Light Snow
7:35 PM 23.0 °F 7.6 °F 21.2 °F 93% 29.54 in 4.0 mi NW 21.9 mph 27.6 mph N/A   Mist
7:46 PM 23.0 °F 7.6 °F 21.2 °F 93% 29.55 in 2.5 mi NW 21.9 mph 28.8 mph N/A Snow Light Snow
8:15 PM 21.2 °F 6.0 °F 19.4 °F 93% 29.58 in 0.8 mi NNW 19.6 mph 26.5 mph N/A Snow Snow
8:28 PM 21.2 °F 6.0 °F 19.4 °F 93% 29.59 in 0.2 mi NNW 19.6 mph 25.3 mph N/A Snow Snow
8:54 PM 19.4 °F 4.5 °F 17.6 °F 93% 29.60 in 0.8 mi NNW 17.3 mph 29.9 mph N/A Snow Snow
9:14 PM 19.4 °F 3.2 °F 17.6 °F 93% 29.62 in 0.8 mi NW 20.7 mph 28.8 mph N/A Snow Light Snow
9:33 PM 19.4 °F 3.2 °F 17.6 °F 93% 29.64 in 1.5 mi NNW 20.7 mph 25.3 mph N/A Snow Light Snow
9:55 PM 19.4 °F 4.1 °F 17.6 °F 93% 29.65 in 1.5 mi NNW 18.4 mph 27.6 mph N/A Snow Light Snow
10:14 PM 19.4 °F 3.6 °F 17.6 °F 93% 29.66 in 1.2 mi NW 19.6 mph 27.6 mph N/A Snow Light Snow
10:34 PM 19.4 °F 3.6 °F 17.6 °F 93% 29.67 in 1.0 mi NW 19.6 mph 28.8 mph N/A Snow Light Snow
10:54 PM 19.4 °F 4.5 °F 17.6 °F 93% 29.69 in 1.0 mi NW 17.3 mph 27.6 mph N/A Snow Light Snow
11:14 PM 19.4 °F 3.6 °F 17.6 °F 93% 29.69 in 1.2 mi NW 19.6 mph 28.8 mph N/A Snow Light Snow
11:34 PM 17.6 °F 1.3 °F 15.8 °F 93% 29.71 in 1.5 mi NW 19.6 mph 26.5 mph N/A Snow Light Snow
11:54 PM 17.6 °F 1.3 °F 15.8 °F 93% 29.72 in 1.8 mi NW 19.6 mph 27.6 mph N/A Snow Light Snow